Time,TemperatureF,DewpointF,PressureIn,WindDirection,WindDirectionDegrees,WindSpeedMPH,WindSpeedGustMPH,Humidity,HourlyPrecipIn,Conditions,Clouds,dailyrainin,SoftwareType,DateUTC
2013-11-11 00:01:00,41.4,31.6,29.77,WSW,247,6.3,-999.0,68,-99.99,,,0.00,Acu-Link.com,2013-11-11 05:01:00,
2013-11-11 00:16:00,41.4,31.3,29.79,SW,225,4.7,-999.0,67,-99.99,,,0.00,Acu-Link.com,2013-11-11 05:16:00,
2013-11-11 00:31:00,41.0,30.2,29.79,NNW,337,3.7,-999.0,65,-99.99,,,0.00,Acu-Link.com,2013-11-11 05:31:00,
2013-11-11 00:46:00,40.8,30.0,29.80,West,270,7.8,-999.0,65,-99.99,,,0.00,Acu-Link.com,2013-11-11 05:46:00,
2013-11-11 01:02:00,40.6,29.8,29.81,SW,225,8.3,-999.0,65,-99.99,,,0.00,Acu-Link.com,2013-11-11 06:02:00,
2013-11-11 01:17:00,40.1,29.7,29.81,ENE,67,2.7,-999.0,66,-99.99,,,0.00,Acu-Link.com,2013-11-11 06:17:00,
2013-11-11 01:33:00,39.9,29.5,29.83,SSE,157,6.8,-999.0,66,-99.99,,,0.00,Acu-Link.com,2013-11-11 06:33:00,
2013-11-11 01:48:00,40.5,29.3,29.83,SSW,202,8.9,-999.0,64,-99.99,,,0.00,Acu-Link.com,2013-11-11 06:48:00,
2013-11-11 02:03:00,40.3,28.7,29.84,NE,45,6.3,-999.0,63,-99.99,,,0.00,Acu-Link.com,2013-11-11 07:03:00,
2013-11-11 02:18:00,40.5,28.5,29.85,NE,45,6.3,-999.0,62,-99.99,,,0.00,Acu-Link.com,2013-11-11 07:18:00,
2013-11-11 02:34:00,40.3,28.7,29.85,West,270,2.2,-999.0,63,-99.99,,,0.00,Acu-Link.com,2013-11-11 07:34:00,
2013-11-11 02:49:00,40.3,28.7,29.86,SSW,202,6.8,-999.0,63,-99.99,,,0.00,Acu-Link.com,2013-11-11 07:49:00,
2013-11-11 03:04:00,39.9,28.3,29.86,North,0,4.2,-999.0,63,-99.99,,,0.00,Acu-Link.com,2013-11-11 08:04:00,
2013-11-11 03:19:00,39.6,28.1,29.87,North,0,4.2,-999.0,63,-99.99,,,0.00,Acu-Link.com,2013-11-11 08:19:00,
2013-11-11 03:34:00,39.2,28.1,29.88,North,0,5.3,-999.0,64,-99.99,,,0.00,Acu-Link.com,2013-11-11 08:34:00,
2013-11-11 03:50:00,39.0,27.9,29.87,ESE,112,2.7,-999.0,64,-99.99,,,0.00,Acu-Link.com,2013-11-11 08:50:00,
2013-11-11 04:05:00,38.8,27.7,29.89,North,0,2.2,-999.0,64,-99.99,,,0.00,Acu-Link.com,2013-11-11 09:05:00,
2013-11-11 04:20:00,38.3,27.6,29.90,West,270,4.2,-999.0,65,-99.99,,,0.00,Acu-Link.com,2013-11-11 09:20:00,
2013-11-11 04:35:00,38.1,27.8,29.91,North,0,1.7,-999.0,66,-99.99,,,0.00,Acu-Link.com,2013-11-11 09:35:00,
2013-11-11 04:50:00,38.1,27.4,29.92,SSW,202,2.7,-999.0,65,-99.99,,,0.00,Acu-Link.com,2013-11-11 09:50:00,
2013-11-11 05:06:00,38.1,27.8,29.93,NNE,22,3.7,-999.0,66,-99.99,,,0.00,Acu-Link.com,2013-11-11 10:06:00,
2013-11-11 05:21:00,37.9,27.2,29.94,ENE,67,5.8,-999.0,65,-99.99,,,0.00,Acu-Link.com,2013-11-11 10:21:00,
2013-11-11 05:36:00,38.5,27.4,29.94,NW,315,2.7,-999.0,64,-99.99,,,0.00,Acu-Link.com,2013-11-11 10:36:00,
2013-11-11 05:51:00,37.8,27.1,29.94,SSW,202,1.7,-999.0,65,-99.99,,,0.00,Acu-Link.com,2013-11-11 10:51:00,
2013-11-11 06:07:00,37.8,27.5,29.96,South,180,4.2,-999.0,66,-99.99,,,0.00,Acu-Link.com,2013-11-11 11:07:00,
2013-11-11 06:22:00,37.0,27.4,29.96,SW,225,1.7,-999.0,68,-99.99,,,0.00,Acu-Link.com,2013-11-11 11:22:00,
2013-11-11 06:37:00,36.5,27.0,29.96,WNW,292,3.7,-999.0,68,-99.99,,,0.00,Acu-Link.com,2013-11-11 11:37:00,
2013-11-11 06:52:00,36.3,27.1,29.97,SSW,202,2.2,-999.0,69,-99.99,,,0.00,Acu-Link.com,2013-11-11 11:52:00,
2013-11-11 07:07:00,36.1,26.9,29.98,SE,135,0.0,-999.0,69,-99.99,,,0.00,Acu-Link.com,2013-11-11 12:07:00,
2013-11-11 07:23:00,35.6,27.1,29.99,West,270,2.2,-999.0,71,-99.99,,,0.00,Acu-Link.com,2013-11-11 12:23:00,
2013-11-11 07:38:00,36.5,27.7,29.99,West,270,2.2,-999.0,70,-99.99,,,0.00,Acu-Link.com,2013-11-11 12:38:00,
2013-11-11 07:53:00,37.0,27.8,29.99,West,270,4.7,-999.0,69,-99.99,,,0.00,Acu-Link.com,2013-11-11 12:53:00,
2013-11-11 08:08:00,38.3,27.2,30.00,West,270,3.2,-999.0,64,-99.99,,,0.00,Acu-Link.com,2013-11-11 13:08:00,
2013-11-11 08:23:00,39.4,27.5,30.00,NE,45,4.7,-999.0,62,-99.99,,,0.00,Acu-Link.com,2013-11-11 13:23:00,
2013-11-11 08:39:00,40.1,27.7,30.00,NE,45,2.2,-999.0,61,-99.99,,,0.00,Acu-Link.com,2013-11-11 13:39:00,
2013-11-11 08:54:00,41.0,27.8,30.01,SW,225,3.2,-999.0,59,-99.99,,,0.00,Acu-Link.com,2013-11-11 13:54:00,
2013-11-11 09:09:00,41.2,28.0,30.02,North,0,2.7,-999.0,59,-99.99,,,0.00,Acu-Link.com,2013-11-11 14:09:00,
2013-11-11 09:24:00,41.7,28.0,30.01,East,90,3.7,-999.0,58,-99.99,,,0.00,Acu-Link.com,2013-11-11 14:24:00,
2013-11-11 09:39:00,42.1,28.0,30.02,South,180,3.2,-999.0,57,-99.99,,,0.00,Acu-Link.com,2013-11-11 14:39:00,
2013-11-11 09:55:00,43.2,29.0,30.02,East,90,8.3,-999.0,57,-99.99,,,0.00,Acu-Link.com,2013-11-11 14:55:00,
2013-11-11 10:10:00,43.3,28.2,30.02,South,180,3.7,-999.0,55,-99.99,,,0.00,Acu-Link.com,2013-11-11 15:10:00,
2013-11-11 10:25:00,44.4,29.3,30.01,SSW,202,4.2,-999.0,55,-99.99,,,0.00,Acu-Link.com,2013-11-11 15:25:00,
2013-11-11 10:40:00,44.2,28.6,30.01,SW,225,3.7,-999.0,54,-99.99,,,0.00,Acu-Link.com,2013-11-11 15:40:00,
2013-11-11 10:56:00,44.2,28.2,30.01,SW,225,6.8,-999.0,53,-99.99,,,0.00,Acu-Link.com,2013-11-11 15:56:00,
2013-11-11 11:11:00,44.4,27.9,29.99,East,90,2.7,-999.0,52,-99.99,,,0.00,Acu-Link.com,2013-11-11 16:11:00,
2013-11-11 11:26:00,45.9,27.8,29.99,SW,225,6.3,-999.0,49,-99.99,,,0.00,Acu-Link.com,2013-11-11 16:26:00,
2013-11-11 11:41:00,47.3,27.6,29.99,ESE,112,6.8,-999.0,46,-99.99,,,0.00,Acu-Link.com,2013-11-11 16:41:00,
2013-11-11 11:56:00,48.0,27.7,29.98,ESE,112,2.7,-999.0,45,-99.99,,,0.00,Acu-Link.com,2013-11-11 16:56:00,
2013-11-11 12:12:00,48.2,27.9,29.97,ENE,67,4.2,-999.0,45,-99.99,,,0.00,Acu-Link.com,2013-11-11 17:12:00,
2013-11-11 12:27:00,48.4,27.5,29.95,NNE,22,5.8,-999.0,44,-99.99,,,0.00,Acu-Link.com,2013-11-11 17:27:00,
2013-11-11 12:42:00,48.2,26.8,29.93,SW,225,3.7,-999.0,43,-99.99,,,0.00,Acu-Link.com,2013-11-11 17:42:00,
2013-11-11 12:57:00,49.1,27.0,29.93,SW,225,4.7,-999.0,42,-99.99,,,0.00,Acu-Link.com,2013-11-11 17:57:00,
2013-11-11 13:12:00,49.5,27.9,29.92,East,90,3.7,-999.0,43,-99.99,,,0.00,Acu-Link.com,2013-11-11 18:12:00,
2013-11-11 13:28:00,49.3,27.8,29.92,NNE,22,3.2,-999.0,43,-99.99,,,0.00,Acu-Link.com,2013-11-11 18:28:00,
2013-11-11 13:43:00,49.5,26.2,29.91,NE,45,3.2,-999.0,40,-99.99,,,0.00,Acu-Link.com,2013-11-11 18:43:00,
2013-11-11 13:58:00,50.2,28.6,29.92,WSW,247,4.2,-999.0,43,-99.99,,,0.00,Acu-Link.com,2013-11-11 18:58:00,
2013-11-11 14:13:00,50.4,27.0,29.91,SW,225,2.7,-999.0,40,-99.99,,,0.00,Acu-Link.com,2013-11-11 19:13:00,
2013-11-11 14:28:00,49.8,27.6,29.91,ESE,112,4.7,-999.0,42,-99.99,,,0.00,Acu-Link.com,2013-11-11 19:28:00,
2013-11-11 14:44:00,49.3,27.2,29.90,SW,225,2.7,-999.0,42,-99.99,,,0.00,Acu-Link.com,2013-11-11 19:44:00,
2013-11-11 14:59:00,48.9,28.5,29.91,SSW,202,4.2,-999.0,45,-99.99,,,0.00,Acu-Link.com,2013-11-11 19:59:00,
2013-11-11 15:14:00,47.8,29.1,29.90,West,270,2.2,-999.0,48,-99.99,,,0.00,Acu-Link.com,2013-11-11 20:14:00,
2013-11-11 15:29:00,47.7,29.5,29.91,SW,225,2.7,-999.0,49,-99.99,,,0.00,Acu-Link.com,2013-11-11 20:29:00,
2013-11-11 15:45:00,47.7,29.0,29.91,SW,225,2.7,-999.0,48,-99.99,,,0.00,Acu-Link.com,2013-11-11 20:45:00,
2013-11-11 16:00:00,46.9,29.2,29.89,SSW,202,0.0,-999.0,50,-99.99,,,0.00,Acu-Link.com,2013-11-11 21:00:00,
2013-11-11 16:15:00,46.2,29.1,29.89,NNW,337,0.0,-999.0,51,-99.99,,,0.00,Acu-Link.com,2013-11-11 21:15:00,
2013-11-11 16:30:00,45.9,29.3,29.89,SSW,202,0.0,-999.0,52,-99.99,,,0.00,Acu-Link.com,2013-11-11 21:30:00,
2013-11-11 16:45:00,46.6,29.5,29.87,SSW,202,2.2,-999.0,51,-99.99,,,0.00,Acu-Link.com,2013-11-11 21:45:00,
2013-11-11 17:01:00,46.6,29.5,29.88,SW,225,3.2,-999.0,51,-99.99,,,0.00,Acu-Link.com,2013-11-11 22:01:00,
2013-11-11 17:16:00,46.2,29.6,29.89,SW,225,3.7,-999.0,52,-99.99,,,0.00,Acu-Link.com,2013-11-11 22:16:00,
2013-11-11 17:31:00,45.5,29.4,29.88,SSW,202,1.1,-999.0,53,-99.99,,,0.00,Acu-Link.com,2013-11-11 22:31:00,
2013-11-11 17:46:00,45.3,30.1,29.88,SW,225,4.2,-999.0,55,-99.99,,,0.00,Acu-Link.com,2013-11-11 22:46:00,
2013-11-11 18:01:00,44.6,30.3,29.88,WSW,247,2.7,-999.0,57,-99.99,,,0.00,Acu-Link.com,2013-11-11 23:01:00,
2013-11-11 18:17:00,44.4,31.0,29.88,SSW,202,2.2,-999.0,59,-99.99,,,0.00,Acu-Link.com,2013-11-11 23:17:00,
2013-11-11 18:32:00,44.8,31.4,29.88,WSW,247,3.2,-999.0,59,-99.99,,,0.00,Acu-Link.com,2013-11-11 23:32:00,
2013-11-11 18:47:00,44.8,31.8,29.89,SW,225,2.2,-999.0,60,-99.99,,,0.00,Acu-Link.com,2013-11-11 23:47:00,
2013-11-11 19:02:00,44.6,31.6,29.87,West,270,2.2,-999.0,60,-99.99,,,0.00,Acu-Link.com,2013-11-12 00:02:00,
2013-11-11 19:17:00,44.8,31.4,29.87,South,180,3.7,-999.0,59,-99.99,,,0.00,Acu-Link.com,2013-11-12 00:17:00,
2013-11-11 19:33:00,45.0,31.1,29.87,South,180,3.2,-999.0,58,-99.99,,,0.00,Acu-Link.com,2013-11-12 00:33:00,
2013-11-11 19:48:00,45.1,30.8,29.86,SSW,202,3.7,-999.0,57,-99.99,,,0.00,Acu-Link.com,2013-11-12 00:48:00,
2013-11-11 20:03:00,45.3,31.0,29.86,WSW,247,3.7,-999.0,57,-99.99,,,0.00,Acu-Link.com,2013-11-12 01:03:00,
2013-11-11 20:18:00,45.1,31.6,29.86,West,270,4.7,-999.0,59,-99.99,,,0.00,Acu-Link.com,2013-11-12 01:18:00,
2013-11-11 20:33:00,45.1,31.6,29.85,SW,225,3.2,-999.0,59,-99.99,,,0.00,Acu-Link.com,2013-11-12 01:33:00,
2013-11-11 20:49:00,45.1,32.1,29.85,SSW,202,2.7,-999.0,60,-99.99,,,0.00,Acu-Link.com,2013-11-12 01:49:00,
2013-11-11 21:04:00,45.3,32.2,29.84,SSW,202,3.2,-999.0,60,-99.99,,,0.00,Acu-Link.com,2013-11-12 02:04:00,
2013-11-11 21:19:00,45.3,32.2,29.84,SW,225,4.7,-999.0,60,-99.99,,,0.00,Acu-Link.com,2013-11-12 02:19:00,
2013-11-11 21:34:00,45.3,32.7,29.83,ENE,67,1.1,-999.0,61,-99.99,,,0.00,Acu-Link.com,2013-11-12 02:34:00,
2013-11-11 21:50:00,45.7,32.6,29.83,West,270,4.2,-999.0,60,-99.99,,,0.00,Acu-Link.com,2013-11-12 02:50:00,
2013-11-11 22:05:00,45.9,32.4,29.83,West,270,5.3,-999.0,59,-99.99,,,0.00,Acu-Link.com,2013-11-12 03:05:00,
2013-11-11 22:20:00,46.0,32.5,29.82,NW,315,4.7,-999.0,59,-99.99,,,0.00,Acu-Link.com,2013-11-12 03:20:00,
2013-11-11 22:35:00,46.2,33.1,29.82,West,270,4.7,-999.0,60,-99.99,,,0.00,Acu-Link.com,2013-11-12 03:35:00,
2013-11-11 22:50:00,46.2,32.7,29.82,SSW,202,2.7,-999.0,59,-99.99,,,0.00,Acu-Link.com,2013-11-12 03:50:00,
2013-11-11 23:06:00,46.2,33.1,29.82,SSW,202,3.2,-999.0,60,-99.99,,,0.00,Acu-Link.com,2013-11-12 04:06:00,
2013-11-11 23:21:00,46.4,32.9,29.82,SSW,202,1.7,-999.0,59,-99.99,,,0.00,Acu-Link.com,2013-11-12 04:21:00,
2013-11-11 23:36:00,46.6,33.0,29.82,WSW,247,2.2,-999.0,59,-99.99,,,0.00,Acu-Link.com,2013-11-12 04:36:00,
2013-11-11 23:51:00,46.6,32.6,29.82,West,270,1.7,-999.0,58,-99.99,,,0.00,Acu-Link.com,2013-11-12 04:51:00,